When you browse on this site, cookies collect data to enhance your experience and personalize the content and advertising you see.
Visit our Privacy Policy to learn more. By continuing to use the site, you agree to this use of cookies and data.
  • In Portugal
  • List of Countries
  • For 7 days
  • Water Temperature
  • Weather Map
  • Weather Widgets
  • user-avatar
    Login

    Hourly Weather Luhovka

    Today, 23 September, Monday

    Time Temperature Precipitation Wind Pressure Humidity
    00:00 -1°C° 0.4 mm 7 mps 733 mmHg 96%
    01:00 -1°C° 0.2 mm 8 mps 734 mmHg 95%
    02:00 -1°C° 0.2 mm 8 mps 735 mmHg 95%
    03:00 0°C° 0 mm 7 mps 736 mmHg 95%
    04:00 0°C° 0.1 mm 7 mps 737 mmHg 94%
    05:00 0°C° 0.1 mm 7 mps 738 mmHg 92%
    06:00 0°C° 0.1 mm 7 mps 738 mmHg 91%
    07:00 0°C° 0.3 mm 7 mps 739 mmHg 90%
    08:00 0°C° 0.3 mm 7 mps 740 mmHg 89%
    09:00 0°C° 0 mm 7 mps 741 mmHg 87%
    10:00 +2°C° 0 mm 7 mps 742 mmHg 83%
    11:00 +2°C° 0 mm 7 mps 742 mmHg 78%
    12:00 +3°C° 0 mm 7 mps 743 mmHg 74%
    13:00 +3°C° 0.1 mm 7 mps 743 mmHg 75%
    14:00 +2°C° 0.1 mm 7 mps 744 mmHg 77%
    15:00 +3°C° 0 mm 6 mps 744 mmHg 76%
    16:00 +3°C° 0.3 mm 7 mps 744 mmHg 82%
    17:00 +2°C° 0.3 mm 7 mps 745 mmHg 87%
    18:00 +2°C° 0.3 mm 7 mps 745 mmHg 93%
    19:00 +2°C° 0.2 mm 7 mps 745 mmHg 91%
    20:00 0°C° 0.2 mm 7 mps 746 mmHg 89%
    21:00 +1°C° 0.2 mm 6 mps 746 mmHg 87%
    22:00 +1°C° 0 mm 6 mps 746 mmHg 87%
    23:00 +1°C° 0 mm 5 mps 746 mmHg 88%

    Tomorrow, 24 September, Tuesday

    Time Temperature Precipitation Wind Pressure Humidity
    00:00 +1°C° 0 mm 5 mps 746 mmHg 88%
    01:00 +1°C° 0 mm 5 mps 747 mmHg 88%
    02:00 +1°C° 0 mm 5 mps 748 mmHg 88%
    03:00 +1°C° 0 mm 5 mps 748 mmHg 88%
    04:00 +1°C° 0 mm 5 mps 748 mmHg 89%
    05:00 0°C° 0 mm 5 mps 748 mmHg 90%
    06:00 0°C° 0 mm 4 mps 748 mmHg 91%
    07:00 0°C° 0 mm 4 mps 749 mmHg 89%
    08:00 0°C° 0 mm 4 mps 749 mmHg 88%
    09:00 +1°C° 0 mm 4 mps 749 mmHg 86%
    10:00 +3°C° 0 mm 4 mps 749 mmHg 83%
    11:00 +3°C° 0 mm 4 mps 749 mmHg 80%
    12:00 +4°C° 0 mm 4 mps 749 mmHg 76%
    13:00 +5°C° 0.1 mm 4 mps 749 mmHg 72%
    14:00 +6°C° 0.1 mm 4 mps 749 mmHg 69%
    15:00 +6°C° 0.1 mm 4 mps 749 mmHg 65%
    16:00 +5°C° 0.2 mm 3 mps 749 mmHg 70%
    17:00 +5°C° 0.2 mm 3 mps 749 mmHg 75%
    18:00 +5°C° 0.2 mm 2 mps 749 mmHg 80%
    19:00 +4°C° 0 mm 2 mps 749 mmHg 83%
    20:00 +4°C° 0 mm 2 mps 750 mmHg 86%
    21:00 +3°C° 0 mm 2 mps 750 mmHg 89%
    22:00 +3°C° 0 mm 2 mps 750 mmHg 91%
    23:00 +2°C° 0 mm 2 mps 750 mmHg 93%

    Day after tomorrow, 25 September, Wednesday

    Time Temperature Precipitation Wind Pressure Humidity
    00:00 +2°C° 0 mm 2 mps 750 mmHg 95%
    01:00 +2°C° 0 mm 2 mps 750 mmHg 94%
    02:00 +1°C° 0 mm 2 mps 750 mmHg 94%
    03:00 +1°C° 0 mm 2 mps 750 mmHg 94%
    04:00 +1°C° 0 mm 2 mps 750 mmHg 94%
    05:00 -1°C° 0 mm 2 mps 751 mmHg 94%
    06:00 -1°C° 0 mm 2 mps 751 mmHg 94%
    07:00 +1°C° 0 mm 2 mps 751 mmHg 88%
    08:00 +2°C° 0 mm 3 mps 751 mmHg 82%
    09:00 +3°C° 0 mm 3 mps 751 mmHg 76%
    10:00 +4°C° 0 mm 3 mps 751 mmHg 72%
    11:00 +5°C° 0 mm 3 mps 751 mmHg 68%
    12:00 +5°C° 0 mm 3 mps 751 mmHg 64%
    13:00 +7°C° 0.1 mm 3 mps 751 mmHg 63%
    14:00 +7°C° 0.1 mm 3 mps 751 mmHg 62%
    15:00 +6°C° 0.1 mm 4 mps 751 mmHg 61%
    16:00 +5°C° 0.1 mm 3 mps 751 mmHg 66%
    17:00 +4°C° 0.1 mm 3 mps 751 mmHg 70%
    18:00 +5°C° 0.1 mm 2 mps 751 mmHg 75%
    19:00 +4°C° 0 mm 2 mps 751 mmHg 77%
    20:00 +3°C° 0 mm 2 mps 751 mmHg 79%
    21:00 +3°C° 0 mm 2 mps 752 mmHg 81%
    22:00 +3°C° 0 mm 2 mps 752 mmHg 81%
    23:00 +3°C° 0 mm 2 mps 751 mmHg 81%

    26 September, Thursday

    Time Temperature Precipitation Wind Pressure Humidity
    00:00 +3°C° 0 mm 2 mps 751 mmHg 81%
    01:00 +2°C° 0 mm 2 mps 751 mmHg 83%
    02:00 +2°C° 0 mm 2 mps 751 mmHg 86%
    03:00 +2°C° 0 mm 2 mps 752 mmHg 88%
    04:00 +2°C° 0 mm 2 mps 752 mmHg 90%
    05:00 +2°C° 0 mm 2 mps 752 mmHg 93%
    06:00 +2°C° 0 mm 2 mps 752 mmHg 96%
    07:00 +3°C° 0 mm 2 mps 752 mmHg 90%
    08:00 +4°C° 0 mm 2 mps 752 mmHg 85%
    09:00 +5°C° 0 mm 2 mps 752 mmHg 79%
    10:00 +5°C° 0.1 mm 3 mps 752 mmHg 73%
    11:00 +7°C° 0.1 mm 3 mps 752 mmHg 66%
    12:00 +7°C° 0.1 mm 4 mps 752 mmHg 60%
    13:00 +7°C° 0 mm 4 mps 752 mmHg 58%
    14:00 +7°C° 0 mm 4 mps 751 mmHg 57%
    15:00 +8°C° 0 mm 4 mps 751 mmHg 55%
    16:00 +6°C° 0 mm 4 mps 751 mmHg 61%
    17:00 +5°C° 0 mm 3 mps 751 mmHg 67%
    18:00 +5°C° 0 mm 2 mps 751 mmHg 73%
    19:00 +5°C° 0 mm 2 mps 751 mmHg 75%
    20:00 +4°C° 0 mm 2 mps 751 mmHg 77%
    21:00 +4°C° 0 mm 2 mps 751 mmHg 79%
    22:00 +4°C° 0 mm 2 mps 751 mmHg 81%
    23:00 +3°C° 0 mm 2 mps 751 mmHg 83%

    27 September, Friday

    Time Temperature Precipitation Wind Pressure Humidity
    00:00 +3°C° 0 mm 2 mps 751 mmHg 85%
    01:00 +3°C° 0 mm 2 mps 751 mmHg 87%
    02:00 +3°C° 0 mm 2 mps 751 mmHg 88%
    03:00 +3°C° 0 mm 2 mps 750 mmHg 90%
    04:00 +2°C° 0 mm 2 mps 750 mmHg 91%
    05:00 +2°C° 0 mm 2 mps 750 mmHg 92%
    06:00 +1°C° 0 mm 3 mps 750 mmHg 92%
    07:00 +2°C° 0 mm 3 mps 750 mmHg 87%
    08:00 +4°C° 0 mm 4 mps 750 mmHg 82%
    09:00 +5°C° 0 mm 4 mps 749 mmHg 76%
    10:00 +6°C° 0 mm 4 mps 749 mmHg 72%
    11:00 +7°C° 0 mm 5 mps 749 mmHg 67%
    12:00 +8°C° 0 mm 5 mps 749 mmHg 63%
    13:00 +8°C° 0 mm 5 mps 749 mmHg 64%
    14:00 +8°C° 0 mm 6 mps 749 mmHg 65%
    15:00 +8°C° 0 mm 6 mps 748 mmHg 66%
    16:00 +7°C° 0.1 mm 5 mps 748 mmHg 73%
    17:00 +6°C° 0.1 mm 5 mps 748 mmHg 79%
    18:00 +5°C° 0.1 mm 5 mps 748 mmHg 85%
    19:00 +5°C° 0 mm 4 mps 749 mmHg 87%
    20:00 +5°C° 0 mm 4 mps 749 mmHg 89%
    21:00 +5°C° 0 mm 4 mps 749 mmHg 90%
    22:00 +5°C° 0 mm 4 mps 749 mmHg 92%
    23:00 +4°C° 0 mm 3 mps 749 mmHg 93%

    28 September, Saturday

    Time Temperature Precipitation Wind Pressure Humidity
    00:00 +4°C° 0 mm 3 mps 750 mmHg 95%
    01:00 +4°C° 0 mm 3 mps 750 mmHg 95%
    02:00 +3°C° 0 mm 3 mps 750 mmHg 95%
    03:00 +3°C° 0 mm 3 mps 750 mmHg 96%
    04:00 +4°C° 0 mm 2 mps 750 mmHg 96%
    05:00 +3°C° 0 mm 2 mps 751 mmHg 96%
    06:00 +2°C° 0 mm 2 mps 751 mmHg 97%
    07:00 +3°C° 0 mm 2 mps 751 mmHg 93%
    08:00 +4°C° 0 mm 2 mps 751 mmHg 88%
    09:00 +4°C° 0 mm 3 mps 751 mmHg 84%
    10:00 +4°C° 0 mm 3 mps 752 mmHg 78%
    11:00 +5°C° 0 mm 3 mps 752 mmHg 73%
    12:00 +7°C° 0 mm 3 mps 752 mmHg 67%
    13:00 +7°C° 0 mm 3 mps 752 mmHg 66%
    14:00 +7°C° 0 mm 3 mps 752 mmHg 65%
    15:00 +7°C° 0 mm 3 mps 752 mmHg 65%
    16:00 +5°C° 0 mm 3 mps 753 mmHg 66%
    17:00 +5°C° 0 mm 3 mps 753 mmHg 68%
    18:00 +6°C° 0 mm 2 mps 753 mmHg 70%
    19:00 +5°C° 0 mm 2 mps 753 mmHg 70%
    20:00 +5°C° 0 mm 2 mps 753 mmHg 71%
    21:00 +5°C° 0 mm 2 mps 754 mmHg 71%
    22:00 +4°C° 0 mm 2 mps 754 mmHg 72%
    23:00 +5°C° 0 mm 1 mps 754 mmHg 73%
    Show more